contact:dominique.lefevre@mio.osupytheas.fr, maurice.libes@osupytheas.fr, didier.mallarino@osupytheas.fr
Project:EMSO http://www.emso-fr.org/EMSO-France
Depth: 2436.0 m
Title:EMSO Ligure Ouest : Data MII capteur AQUADOPP
Date,Latitude,Longitude,X_East,Y_North,Z_Up,Amplitude_X,Amplitude_Y,Amplitude_Z,Batterie,SoundSpeed,Heading,Pitch,Roll,Pressure,TIS,Speed,Direction
, degrees North, degrees East, m.s-1, m.s-1,m.s-1, 1, 1, 1, Volt, m.s-1, degree, degree, degree, dbar, degree_C, m.s-1, degree
2023-02-16T00:04:03,42.805,6.029,-0.034,0.004,-0.014,105.0,105.0,104.0,13.3,1505.2,323.2,-0.7,1.8,2471.178,13.29,0.034,276.7
2023-02-16T00:07:03,42.805,6.029,-0.026,0.027,0.001,104.0,105.0,104.0,13.4,1505.2,325.8,-0.7,1.8,2471.127,13.29,0.037,316.1
2023-02-16T00:10:03,42.805,6.029,-0.025,-0.013,-0.013,104.0,104.0,104.0,13.3,1505.2,322.7,-0.7,1.8,2471.12,13.29,0.028,242.5
2023-02-16T00:13:03,42.805,6.029,-0.029,0.019,-0.021,106.0,105.0,103.0,13.4,1505.2,332.9,-0.7,1.8,2471.117,13.29,0.034,303.2
2023-02-16T00:16:03,42.805,6.029,-0.034,0.015,-0.011,106.0,103.0,103.0,13.4,1505.2,325.3,-0.8,1.8,2471.117,13.29,0.037,293.8
2023-02-16T00:19:03,42.805,6.029,-0.024,0.0,-0.022,105.0,104.0,103.0,13.3,1505.2,314.4,-0.8,1.8,2471.118,13.29,0.024,270.0
2023-02-16T00:22:03,42.805,6.029,-0.047,0.011,-0.032,105.0,104.0,104.0,13.4,1505.2,329.6,-0.7,1.8,2471.113,13.29,0.048,283.2
2023-02-16T00:25:03,42.805,6.029,-0.027,0.02,0.013,105.0,105.0,102.0,13.4,1505.2,324.6,-0.7,1.8,2471.113,13.29,0.033,306.5
2023-02-16T00:28:03,42.805,6.029,-0.029,0.024,-0.021,106.0,103.0,104.0,13.4,1505.2,330.4,-0.8,1.8,2471.079,13.29,0.037,309.6
2023-02-16T00:31:03,42.805,6.029,-0.021,-0.006,-0.032,105.0,104.0,103.0,13.4,1505.2,321.9,-0.8,1.8,2471.113,13.29,0.021,254.1
2023-02-16T00:34:03,42.805,6.029,-0.042,0.002,-0.034,104.0,104.0,104.0,13.4,1505.2,327.7,-0.8,1.8,2471.098,13.29,0.042,272.7
2023-02-16T00:37:03,42.805,6.029,-0.038,-0.008,-0.061,105.0,103.0,102.0,13.4,1505.2,323.1,-0.8,1.8,2471.093,13.29,0.038,258.1
2023-02-16T00:40:03,42.805,6.029,-0.025,0.019,-0.027,105.0,103.0,104.0,13.3,1505.2,328.2,-0.7,1.8,2471.081,13.29,0.031,307.2
2023-02-16T00:43:03,42.805,6.029,-0.035,0.018,-0.031,105.0,104.0,103.0,13.4,1505.2,332.9,-0.8,1.8,2471.098,13.29,0.039,297.2
2023-02-16T00:46:03,42.805,6.029,-0.031,0.012,0.0,104.0,104.0,103.0,13.4,1505.2,318.8,-0.8,1.8,2471.071,13.29,0.033,291.2
2023-02-16T00:49:03,42.805,6.029,-0.003,0.017,0.006,105.0,106.0,104.0,13.3,1505.2,322.3,-0.8,1.8,2471.091,13.29,0.017,350.0
2023-02-16T00:52:03,42.805,6.029,-0.03,0.005,-0.047,106.0,105.0,104.0,13.4,1505.2,325.2,-0.8,1.8,2471.14,13.29,0.03,279.5
2023-02-16T00:55:03,42.805,6.029,-0.015,0.006,0.001,106.0,106.0,104.0,13.4,1505.2,325.7,-0.8,1.8,2471.114,13.29,0.016,291.8
2023-02-16T00:58:03,42.805,6.029,-0.029,0.003,-0.044,105.0,103.0,103.0,13.3,1505.2,323.3,-0.8,1.8,2471.103,13.29,0.029,275.9
2023-02-16T01:04:03,42.805,6.029,-0.022,0.009,-0.023,106.0,106.0,104.0,13.3,1505.2,336.8,-0.8,1.8,2471.185,13.29,0.023,292.2
2023-02-16T01:07:03,42.805,6.029,-0.036,0.019,-0.045,106.0,106.0,105.0,13.4,1505.2,338.3,-0.8,1.8,2471.159,13.29,0.04,297.8
2023-02-16T01:10:03,42.805,6.029,-0.023,0.009,-0.042,105.0,105.0,103.0,13.4,1505.2,336.8,-0.8,1.8,2471.172,13.29,0.024,291.4
2023-02-16T01:13:03,42.805,6.029,-0.023,0.008,-0.018,105.0,105.0,101.0,13.4,1505.2,321.8,-0.8,1.8,2471.159,13.29,0.024,289.2
2023-02-16T01:16:03,42.805,6.029,-0.028,0.02,-0.015,104.0,105.0,104.0,13.4,1505.2,323.7,-0.8,1.8,2471.13,13.29,0.034,305.5
2023-02-16T01:19:03,42.805,6.029,-0.034,0.009,-0.051,105.0,107.0,102.0,13.4,1505.2,320.9,-0.8,1.8,2471.161,13.29,0.035,284.8
2023-02-16T01:22:03,42.805,6.029,-0.012,-0.015,-0.061,105.0,103.0,103.0,13.4,1505.2,323.9,-0.8,1.8,2471.146,13.29,0.019,218.7
2023-02-16T01:25:03,42.805,6.029,-0.024,0.002,-0.04,104.0,104.0,103.0,13.4,1505.2,328.7,-0.7,1.8,2471.164,13.29,0.024,274.8
2023-02-16T01:28:03,42.805,6.029,-0.017,0.006,-0.018,105.0,103.0,103.0,13.4,1505.2,333.4,-0.8,1.8,2471.164,13.29,0.018,289.4
2023-02-16T01:31:03,42.805,6.029,-0.047,-0.004,-0.037,104.0,104.0,103.0,13.4,1505.2,335.7,-0.8,1.8,2471.143,13.29,0.047,265.1
2023-02-16T01:34:03,42.805,6.029,-0.025,-0.003,-0.022,104.0,105.0,104.0,13.3,1505.2,334.5,-0.8,1.8,2471.144,13.29,0.025,263.2
2023-02-16T01:37:03,42.805,6.029,-0.031,0.007,-0.036,105.0,103.0,103.0,13.4,1505.2,329.0,-0.7,1.8,2471.13,13.29,0.031,282.7
2023-02-16T01:40:03,42.805,6.029,-0.028,-0.008,-0.042,105.0,104.0,103.0,13.4,1505.2,320.9,-0.7,1.8,2471.128,13.29,0.029,254.1
2023-02-16T01:43:03,42.805,6.029,-0.042,0.023,-0.019,104.0,103.0,102.0,13.4,1505.2,322.6,-0.8,1.8,2471.119,13.29,0.047,298.7
2023-02-16T01:46:03,42.805,6.029,-0.038,0.018,-0.021,104.0,104.0,102.0,13.4,1505.2,336.1,-0.8,1.8,2471.17,13.29,0.042,295.3
2023-02-16T01:49:03,42.805,6.029,-0.029,0.007,-0.023,104.0,106.0,103.0,13.4,1505.2,319.3,-0.8,1.8,2471.144,13.29,0.029,283.6
2023-02-16T01:52:03,42.805,6.029,-0.004,-0.011,-0.022,105.0,104.0,103.0,13.3,1505.2,317.6,-0.8,1.8,2471.162,13.29,0.011,200.0
2023-02-16T01:55:03,42.805,6.029,-0.048,0.0,-0.043,105.0,104.0,103.0,13.3,1505.2,331.2,-0.8,1.8,2471.158,13.29,0.048,270.0
2023-02-16T01:58:03,42.805,6.029,-0.02,0.018,-0.018,105.0,104.0,103.0,13.4,1505.2,329.0,-0.8,1.8,2471.121,13.29,0.026,312.0
2023-02-16T02:04:03,42.805,6.029,-0.038,0.012,-0.027,104.0,104.0,103.0,13.4,1505.2,329.8,-0.8,1.8,2471.191,13.28,0.039,287.5
2023-02-16T02:07:03,42.805,6.029,-0.025,-0.004,-0.006,104.0,105.0,103.0,13.4,1505.2,318.2,-0.8,1.8,2471.195,13.29,0.025,260.9
2023-02-16T02:10:03,42.805,6.029,-0.015,0.018,-0.003,104.0,105.0,104.0,13.4,1505.2,328.2,-0.8,1.8,2471.178,13.29,0.023,320.2
2023-02-16T02:13:03,42.805,6.029,-0.026,0.008,-0.029,103.0,105.0,103.0,13.3,1505.2,326.7,-0.8,1.8,2471.183,13.29,0.027,287.1
2023-02-16T02:16:03,42.805,6.029,-0.055,0.011,-0.063,105.0,105.0,103.0,13.3,1505.2,336.5,-0.8,1.8,2471.182,13.29,0.056,281.3
2023-02-16T02:19:03,42.805,6.029,-0.018,-0.008,-0.013,106.0,104.0,103.0,13.4,1505.2,317.3,-0.7,1.8,2471.145,13.29,0.019,246.0
2023-02-16T02:22:03,42.805,6.029,-0.022,0.011,-0.017,105.0,104.0,103.0,13.4,1505.2,329.6,-0.8,1.8,2471.177,13.29,0.024,296.6
2023-02-16T02:25:03,42.805,6.029,-0.026,-0.003,-0.016,104.0,106.0,103.0,13.4,1505.2,322.9,-0.8,1.8,2471.185,13.29,0.026,263.4
2023-02-16T02:28:03,42.805,6.029,-0.028,-0.002,-0.024,105.0,104.0,103.0,13.4,1505.2,321.3,-0.8,1.8,2471.156,13.29,0.028,265.9
2023-02-16T02:31:03,42.805,6.029,-0.05,0.021,-0.027,104.0,105.0,103.0,13.3,1505.2,318.5,-0.8,1.8,2471.187,13.29,0.054,292.8
2023-02-16T02:34:03,42.805,6.029,-0.035,0.011,-0.039,104.0,104.0,103.0,13.3,1505.2,322.1,-0.8,1.8,2471.16,13.29,0.036,287.4
2023-02-16T02:37:03,42.805,6.029,-0.035,0.014,-0.03,105.0,103.0,103.0,13.4,1505.2,320.8,-0.8,1.8,2471.165,13.29,0.037,291.8
2023-02-16T02:40:03,42.805,6.029,-0.03,0.01,-0.014,104.0,105.0,103.0,13.4,1505.2,333.8,-0.7,1.8,2471.202,13.29,0.031,288.4
2023-02-16T02:43:03,42.805,6.029,-0.021,0.006,-0.016,105.0,104.0,103.0,13.4,1505.2,337.1,-0.8,1.8,2471.187,13.29,0.021,285.9
2023-02-16T02:46:03,42.805,6.029,-0.04,0.004,-0.009,105.0,104.0,102.0,13.4,1505.2,317.7,-0.8,1.8,2471.163,13.29,0.04,275.7
2023-02-16T02:49:03,42.805,6.029,-0.03,0.012,-0.017,105.0,104.0,103.0,13.4,1505.2,315.5,-0.8,1.8,2471.205,13.29,0.032,291.8
2023-02-16T02:52:03,42.805,6.029,-0.055,0.006,-0.023,106.0,104.0,102.0,13.3,1505.2,321.2,-0.8,1.8,2471.169,13.29,0.055,276.2
2023-02-16T02:55:03,42.805,6.029,-0.038,0.011,-0.043,105.0,104.0,103.0,13.3,1505.2,336.1,-0.8,1.8,2471.145,13.29,0.039,286.1
2023-02-16T02:58:03,42.805,6.029,-0.016,0.013,-0.033,104.0,106.0,103.0,13.4,1505.2,331.6,-0.8,1.8,2471.198,13.29,0.02,309.1
2023-02-16T03:04:03,42.805,6.029,-0.043,0.0,-0.058,104.0,104.0,103.0,13.3,1505.2,326.5,-0.8,1.8,2471.197,13.28,0.043,270.0
2023-02-16T03:07:03,42.805,6.029,-0.024,0.019,0.001,105.0,104.0,103.0,13.4,1505.2,338.3,-0.8,1.8,2471.236,13.29,0.03,308.4
2023-02-16T03:10:03,42.805,6.029,-0.039,-0.01,-0.036,105.0,104.0,104.0,13.3,1505.2,317.2,-0.8,1.8,2471.248,13.29,0.04,255.6
2023-02-16T03:13:03,42.805,6.029,-0.042,0.013,-0.037,105.0,104.0,101.0,13.3,1505.2,328.2,-0.7,1.8,2471.192,13.29,0.043,287.2
2023-02-16T03:16:03,42.805,6.029,-0.033,0.001,-0.008,104.0,103.0,102.0,13.4,1505.2,331.8,-0.8,1.8,2471.231,13.29,0.033,271.7
2023-02-16T03:19:03,42.805,6.029,-0.038,0.024,-0.048,104.0,105.0,104.0,13.3,1505.2,333.4,-0.8,1.8,2471.226,13.29,0.044,302.3
2023-02-16T03:22:03,42.805,6.029,-0.023,0.01,-0.048,105.0,104.0,103.0,13.4,1505.2,331.4,-0.7,1.8,2471.194,13.29,0.025,293.5
2023-02-16T03:25:03,42.805,6.029,-0.026,0.001,-0.018,104.0,104.0,103.0,13.4,1505.2,333.0,-0.7,1.8,2471.18,13.29,0.026,272.2
2023-02-16T03:28:03,42.805,6.029,-0.024,0.007,-0.037,105.0,104.0,104.0,13.3,1505.2,333.0,-0.7,1.8,2471.197,13.29,0.025,286.3
2023-02-16T03:31:03,42.805,6.029,-0.027,0.019,-0.036,106.0,104.0,103.0,13.3,1505.2,328.7,-0.8,1.8,2471.214,13.29,0.033,305.1
2023-02-16T03:34:03,42.805,6.029,-0.05,0.002,0.0,105.0,105.0,103.0,13.3,1505.2,320.1,-0.7,1.8,2471.205,13.29,0.05,272.3
2023-02-16T03:37:03,42.805,6.029,-0.033,0.017,-0.03,105.0,104.0,103.0,13.4,1505.2,333.0,-0.8,1.8,2471.145,13.29,0.037,297.3
2023-02-16T03:40:03,42.805,6.029,-0.032,0.017,-0.033,104.0,104.0,104.0,13.3,1505.2,336.1,-0.7,1.8,2471.216,13.29,0.036,298.0
2023-02-16T03:43:03,42.805,6.029,-0.038,0.024,-0.03,105.0,104.0,104.0,13.3,1505.2,336.5,-0.8,1.8,2471.16,13.29,0.044,302.3
2023-02-16T03:46:03,42.805,6.029,-0.025,0.0,-0.006,105.0,104.0,102.0,13.4,1505.2,323.5,-0.8,1.8,2471.198,13.29,0.025,270.0
2023-02-16T03:49:03,42.805,6.029,-0.052,0.007,-0.023,105.0,104.0,103.0,13.3,1505.2,326.0,-0.8,1.8,2471.19,13.29,0.052,277.7
2023-02-16T03:52:03,42.805,6.029,-0.013,0.016,-0.022,106.0,107.0,103.0,13.4,1505.2,331.1,-0.8,1.8,2471.213,13.29,0.02,320.9
2023-02-16T03:55:03,42.805,6.029,-0.031,0.0,-0.008,105.0,105.0,103.0,13.4,1505.2,320.9,-0.7,1.8,2471.198,13.29,0.03,270.0
2023-02-16T03:58:03,42.805,6.029,-0.027,-0.02,-0.061,105.0,105.0,103.0,13.4,1505.2,324.7,-0.8,1.8,2471.243,13.29,0.033,233.5
2023-02-16T04:04:03,42.805,6.029,-0.009,0.022,-0.012,104.0,105.0,102.0,13.4,1505.2,340.0,-0.8,1.8,2471.271,13.29,0.023,337.8
2023-02-16T04:07:03,42.805,6.029,-0.016,0.018,-0.034,104.0,103.0,103.0,13.4,1505.2,332.6,-0.8,1.8,2471.303,13.29,0.024,318.4
2023-02-16T04:10:03,42.805,6.029,-0.032,-0.001,-0.036,105.0,104.0,103.0,13.4,1505.2,319.8,-0.8,1.9,2471.266,13.29,0.032,268.2
2023-02-16T04:13:03,42.805,6.029,-0.059,0.01,-0.047,105.0,103.0,103.0,13.4,1505.2,329.8,-0.8,1.8,2471.241,13.29,0.059,279.6
2023-02-16T04:16:03,42.805,6.029,-0.016,0.008,-0.038,103.0,104.0,103.0,13.4,1505.2,334.3,-0.8,1.8,2471.222,13.29,0.017,296.6
2023-02-16T04:19:03,42.805,6.029,-0.047,0.002,-0.061,104.0,105.0,102.0,13.4,1505.2,316.7,-0.7,1.9,2471.194,13.29,0.047,272.4
2023-02-16T04:22:03,42.805,6.029,-0.014,-0.001,-0.013,104.0,104.0,103.0,13.4,1505.2,329.8,-0.8,1.8,2471.24,13.29,0.014,265.9
2023-02-16T04:25:03,42.805,6.029,-0.048,0.02,-0.042,104.0,104.0,103.0,13.4,1505.2,328.4,-0.7,1.9,2471.231,13.29,0.052,292.6
2023-02-16T04:28:03,42.805,6.029,-0.027,-0.013,-0.062,104.0,104.0,103.0,13.4,1505.2,329.5,-0.7,1.8,2471.199,13.29,0.029,244.3
2023-02-16T04:31:03,42.805,6.029,-0.024,0.006,-0.03,105.0,105.0,103.0,13.4,1505.2,322.5,-0.7,1.8,2471.211,13.29,0.024,284.0
2023-02-16T04:34:03,42.805,6.029,-0.023,-0.008,-0.033,105.0,104.0,103.0,13.4,1505.2,319.2,-0.8,1.9,2471.232,13.29,0.024,250.8
2023-02-16T04:37:03,42.805,6.029,-0.033,0.003,-0.023,104.0,104.0,103.0,13.4,1505.2,320.4,-0.7,1.8,2471.229,13.29,0.033,275.2
2023-02-16T04:40:03,42.805,6.029,-0.038,0.0,-0.054,105.0,105.0,102.0,13.4,1505.2,323.2,-0.8,1.8,2471.236,13.29,0.038,270.0
2023-02-16T04:43:03,42.805,6.029,-0.002,-0.006,-0.032,104.0,105.0,103.0,13.4,1505.2,327.9,-0.8,1.8,2471.175,13.29,0.006,198.4
2023-02-16T04:46:03,42.805,6.029,-0.03,-0.004,0.0,105.0,102.0,104.0,13.4,1505.2,317.3,-0.7,1.8,2471.2,13.29,0.03,262.4
2023-02-16T04:49:03,42.805,6.029,-0.02,-0.011,-0.033,104.0,103.0,103.0,13.4,1505.2,322.0,-0.8,1.8,2471.235,13.29,0.022,241.2
2023-02-16T04:52:03,42.805,6.029,-0.015,0.029,-0.053,104.0,104.0,102.0,13.3,1505.2,332.1,-0.8,1.8,2471.202,13.29,0.032,332.6
2023-02-16T04:55:03,42.805,6.029,-0.034,0.014,-0.013,105.0,104.0,103.0,13.4,1505.2,337.6,-0.8,1.8,2471.205,13.29,0.036,292.4
2023-02-16T04:58:03,42.805,6.029,-0.041,-0.004,-0.027,105.0,104.0,102.0,13.4,1505.2,328.4,-0.7,1.8,2471.225,13.29,0.041,264.4
2023-02-16T05:04:03,42.805,6.029,-0.027,0.005,-0.042,105.0,104.0,103.0,13.4,1505.2,331.1,-0.8,1.8,2471.234,13.29,0.027,280.5
2023-02-16T05:07:03,42.805,6.029,-0.031,-0.002,-0.023,104.0,104.0,104.0,13.3,1505.2,323.8,-0.8,1.8,2471.231,13.29,0.031,266.3
2023-02-16T05:10:03,42.805,6.029,-0.03,-0.006,-0.056,104.0,104.0,103.0,13.4,1505.2,330.2,-0.8,1.8,2471.233,13.29,0.03,258.7
2023-02-16T05:13:03,42.805,6.029,-0.014,0.013,-0.048,105.0,104.0,103.0,13.4,1505.2,339.4,-0.8,1.8,2471.277,13.29,0.019,312.9
2023-02-16T05:16:03,42.805,6.029,-0.028,-0.002,-0.027,105.0,103.0,103.0,13.4,1505.2,316.6,-0.7,1.8,2471.231,13.29,0.028,265.9
2023-02-16T05:19:03,42.805,6.029,-0.034,0.016,-0.027,104.0,105.0,103.0,13.4,1505.2,328.7,-0.8,1.8,2471.241,13.29,0.037,295.2
2023-02-16T05:22:03,42.805,6.029,-0.022,0.008,-0.046,105.0,103.0,103.0,13.4,1505.2,326.0,-0.7,1.8,2471.232,13.29,0.023,290.0
2023-02-16T05:25:03,42.805,6.029,-0.061,0.02,-0.027,103.0,104.0,104.0,13.4,1505.2,329.3,-0.8,1.8,2471.215,13.29,0.064,288.1
2023-02-16T05:28:03,42.805,6.029,-0.032,0.014,-0.019,105.0,104.0,103.0,13.4,1505.2,315.5,-0.8,1.8,2471.219,13.29,0.034,293.6
2023-02-16T05:31:03,42.805,6.029,-0.026,-0.002,0.0,106.0,104.0,102.0,13.4,1505.2,331.8,-0.8,1.8,2471.217,13.29,0.026,265.6
2023-02-16T05:34:03,42.805,6.029,-0.02,0.025,0.003,104.0,103.0,103.0,13.4,1505.2,335.4,-0.8,1.8,2471.2,13.29,0.032,321.3
2023-02-16T05:37:03,42.805,6.029,-0.015,0.002,-0.021,104.0,104.0,103.0,13.3,1505.2,316.7,-0.8,1.8,2471.191,13.29,0.015,277.6
2023-02-16T05:40:03,42.805,6.029,-0.044,0.006,-0.035,103.0,104.0,105.0,13.4,1505.2,315.5,-0.8,1.8,2471.218,13.29,0.044,277.8
2023-02-16T05:43:03,42.805,6.029,-0.009,0.008,-0.03,104.0,104.0,103.0,13.3,1505.2,327.6,-0.8,1.8,2471.24,13.29,0.012,311.6
2023-02-16T05:46:03,42.805,6.029,-0.04,0.0,-0.048,105.0,104.0,103.0,13.4,1505.2,331.6,-0.8,1.8,2471.179,13.29,0.04,270.0
2023-02-16T05:49:03,42.805,6.029,-0.032,0.015,-0.008,104.0,103.0,102.0,13.4,1505.2,338.7,-0.8,1.8,2471.217,13.29,0.035,295.1
2023-02-16T05:52:03,42.805,6.029,-0.022,0.008,-0.035,104.0,104.0,103.0,13.4,1505.2,325.3,-0.8,1.8,2471.201,13.29,0.023,290.0
2023-02-16T05:55:03,42.805,6.029,-0.016,-0.003,-0.04,104.0,104.0,103.0,13.4,1505.2,332.5,-0.8,1.8,2471.239,13.29,0.016,259.4
2023-02-16T05:58:03,42.805,6.029,-0.013,0.009,-0.048,105.0,104.0,103.0,13.4,1505.2,339.7,-0.8,1.8,2471.209,13.29,0.015,304.7
2023-02-16T06:04:03,42.805,6.029,-0.026,-0.002,-0.027,104.0,104.0,103.0,13.3,1505.2,339.6,-0.8,1.8,2471.248,13.28,0.026,265.6
2023-02-16T06:07:03,42.805,6.029,-0.019,0.005,-0.037,104.0,104.0,103.0,13.4,1505.2,320.9,-0.8,1.8,2471.269,13.29,0.019,284.7
2023-02-16T06:10:03,42.805,6.029,-0.027,-0.017,-0.041,104.0,104.0,103.0,13.3,1505.2,317.8,-0.8,1.8,2471.222,13.29,0.031,237.8
2023-02-16T06:13:03,42.805,6.029,-0.034,0.007,-0.023,104.0,104.0,102.0,13.4,1505.2,332.5,-0.8,1.8,2471.23,13.29,0.034,281.6
2023-02-16T06:16:03,42.805,6.029,-0.02,-0.013,-0.045,103.0,105.0,103.0,13.3,1505.2,322.2,-0.8,1.8,2471.245,13.29,0.023,237.0
2023-02-16T06:19:03,42.805,6.029,-0.041,0.012,-0.013,103.0,104.0,104.0,13.4,1505.2,335.2,-0.8,1.8,2471.167,13.29,0.042,286.3
2023-02-16T06:22:03,42.805,6.029,-0.042,0.015,-0.04,105.0,103.0,104.0,13.3,1505.2,333.4,-0.8,1.8,2471.16,13.29,0.044,289.6
2023-02-16T06:25:03,42.805,6.029,-0.035,0.007,-0.011,104.0,103.0,102.0,13.3,1505.2,337.0,-0.7,1.8,2471.209,13.29,0.035,281.3
2023-02-16T06:28:03,42.805,6.029,-0.024,0.017,0.0,104.0,104.0,104.0,13.3,1505.2,338.2,-0.8,1.8,2471.212,13.29,0.029,305.3
2023-02-16T06:31:03,42.805,6.029,-0.03,0.007,-0.01,105.0,104.0,105.0,13.3,1505.2,318.8,-0.8,1.8,2471.161,13.29,0.03,283.1
2023-02-16T06:34:03,42.805,6.029,-0.047,0.01,-0.009,104.0,105.0,103.0,13.4,1505.2,319.7,-0.8,1.8,2471.197,13.29,0.048,282.0
2023-02-16T06:37:03,42.805,6.029,-0.026,0.002,-0.005,103.0,104.0,102.0,13.4,1505.2,328.3,-0.8,1.8,2471.222,13.29,0.026,274.4
2023-02-16T06:40:03,42.805,6.029,-0.051,-0.016,-0.035,104.0,102.0,104.0,13.4,1505.2,316.0,-0.7,1.8,2471.167,13.29,0.053,252.6
2023-02-16T06:43:03,42.805,6.029,0.008,-0.012,-0.038,104.0,104.0,103.0,13.3,1505.2,327.9,-0.8,1.8,2471.179,13.29,0.014,146.3
2023-02-16T06:46:03,42.805,6.029,-0.017,-0.002,-0.008,105.0,103.0,103.0,13.4,1505.2,323.1,-0.7,1.8,2471.165,13.29,0.017,263.3
2023-02-16T06:49:03,42.805,6.029,-0.026,0.003,-0.025,106.0,104.0,102.0,13.4,1505.2,324.2,-0.8,1.8,2471.233,13.29,0.026,276.6
2023-02-16T06:52:03,42.805,6.029,-0.023,0.015,-0.037,104.0,104.0,102.0,13.3,1505.2,340.3,-0.8,1.8,2471.182,13.29,0.027,303.1
2023-02-16T06:55:03,42.805,6.029,-0.021,-0.002,0.001,104.0,105.0,103.0,13.4,1505.2,338.3,-0.7,1.8,2471.188,13.29,0.021,264.6
2023-02-16T06:58:03,42.805,6.029,-0.032,0.008,-0.013,104.0,104.0,104.0,13.4,1505.2,319.3,-0.8,1.8,2471.19,13.29,0.032,284.0
2023-02-16T07:04:03,42.805,6.029,-0.052,0.006,-0.03,105.0,105.0,104.0,13.4,1505.2,329.3,-0.8,1.8,2471.235,13.29,0.052,276.6
2023-02-16T07:07:03,42.805,6.029,-0.015,0.013,0.004,105.0,105.0,103.0,13.3,1505.2,329.0,-0.8,1.8,2471.222,13.29,0.019,310.9
2023-02-16T07:10:03,42.805,6.029,-0.021,-0.01,-0.012,104.0,103.0,103.0,13.3,1505.2,328.0,-0.8,1.8,2471.223,13.29,0.023,244.5
2023-02-16T07:13:03,42.805,6.029,-0.009,-0.006,-0.014,104.0,103.0,103.0,13.4,1505.2,316.1,-0.8,1.8,2471.212,13.29,0.01,236.3
2023-02-16T07:16:03,42.805,6.029,-0.031,0.0,0.014,106.0,105.0,103.0,13.4,1505.2,319.2,-0.8,1.8,2471.193,13.29,0.03,270.0
2023-02-16T07:19:03,42.805,6.029,-0.032,0.001,-0.019,103.0,104.0,103.0,13.4,1505.2,318.2,-0.8,1.8,2471.215,13.29,0.032,271.8
2023-02-16T07:22:03,42.805,6.029,-0.023,-0.013,-0.018,106.0,103.0,103.0,13.4,1505.2,331.8,-0.7,1.8,2471.173,13.29,0.026,240.5
2023-02-16T07:25:03,42.805,6.029,-0.009,-0.001,-0.005,104.0,103.0,102.0,13.4,1505.2,327.6,-0.8,1.8,2471.154,13.29,0.009,263.7
2023-02-16T07:28:03,42.805,6.029,-0.003,-0.002,0.0,104.0,104.0,104.0,13.4,1505.2,324.4,-0.7,1.8,2471.21,13.29,0.003,236.3
2023-02-16T07:31:03,42.805,6.029,-0.026,0.008,-0.015,104.0,105.0,103.0,13.4,1505.2,324.2,-0.7,1.8,2471.176,13.29,0.027,287.1
2023-02-16T07:34:03,42.805,6.029,-0.017,-0.011,-0.016,103.0,105.0,103.0,13.3,1505.2,320.8,-0.7,1.8,2471.178,13.29,0.02,237.1
2023-02-16T07:37:03,42.805,6.029,-0.024,0.013,0.017,102.0,104.0,103.0,13.3,1505.2,323.7,-0.7,1.8,2471.183,13.29,0.027,298.4
2023-02-16T07:40:03,42.805,6.029,-0.02,-0.007,-0.013,103.0,103.0,102.0,13.4,1505.2,337.4,-0.8,1.8,2471.166,13.29,0.021,250.7
2023-02-16T07:43:03,42.805,6.029,-0.018,-0.003,-0.032,103.0,104.0,104.0,13.4,1505.2,338.7,-0.8,1.8,2471.184,13.29,0.018,260.5
2023-02-16T07:46:03,42.805,6.029,-0.021,-0.006,-0.019,103.0,103.0,103.0,13.4,1505.2,321.3,-0.7,1.8,2471.178,13.29,0.021,254.1
2023-02-16T07:49:03,42.805,6.029,-0.019,-0.016,-0.005,105.0,102.0,102.0,13.3,1505.2,325.1,-0.8,1.8,2471.133,13.29,0.024,229.9
2023-02-16T07:52:03,42.805,6.029,-0.046,0.004,-0.042,104.0,104.0,102.0,13.4,1505.2,325.4,-0.8,1.8,2471.161,13.29,0.046,275.0
2023-02-16T07:55:03,42.805,6.029,-0.032,0.009,0.003,104.0,104.0,102.0,13.3,1505.2,330.4,-0.7,1.8,2471.19,13.29,0.033,285.7
2023-02-16T07:58:03,42.805,6.029,-0.028,0.016,0.017,105.0,103.0,101.0,13.4,1505.2,331.6,-0.8,1.8,2471.149,13.29,0.032,299.7
2023-02-16T08:04:03,42.805,6.029,-0.028,-0.007,0.009,104.0,103.0,103.0,13.3,1505.2,324.7,-0.8,1.8,2471.166,13.29,0.028,256.0
2023-02-16T08:07:03,42.805,6.029,-0.032,-0.006,-0.008,104.0,103.0,102.0,13.4,1505.2,332.1,-0.7,1.8,2471.203,13.29,0.032,259.4
2023-02-16T08:10:03,42.805,6.029,-0.034,0.0,-0.021,105.0,103.0,102.0,13.3,1505.2,326.8,-0.8,1.8,2471.185,13.29,0.034,270.0
2023-02-16T08:13:03,42.805,6.029,-0.012,-0.019,-0.019,105.0,104.0,102.0,13.4,1505.2,338.3,-0.8,1.8,2471.163,13.29,0.022,212.3
2023-02-16T08:16:03,42.805,6.029,-0.018,-0.018,-0.005,104.0,104.0,102.0,13.3,1505.2,326.9,-0.8,1.8,2471.207,13.29,0.025,225.0
2023-02-16T08:19:03,42.805,6.029,-0.019,0.012,-0.007,103.0,106.0,102.0,13.3,1505.2,318.5,-0.8,1.8,2471.151,13.29,0.022,302.3
2023-02-16T08:22:03,42.805,6.029,-0.023,-0.012,-0.005,104.0,104.0,103.0,13.3,1505.2,331.8,-0.8,1.8,2471.174,13.29,0.025,242.4
2023-02-16T08:25:03,42.805,6.029,-0.039,0.01,0.011,104.0,104.0,102.0,13.4,1505.2,328.5,-0.8,1.8,2471.188,13.29,0.04,284.4
2023-02-16T08:28:03,42.805,6.029,-0.038,-0.007,-0.026,105.0,103.0,103.0,13.4,1505.2,327.6,-0.8,1.8,2471.173,13.29,0.038,259.6
2023-02-16T08:31:03,42.805,6.029,0.004,0.0,-0.006,104.0,103.0,102.0,13.4,1505.2,340.9,-0.8,1.8,2471.139,13.29,0.004,90.0
2023-02-16T08:34:03,42.805,6.029,-0.031,-0.007,-0.031,105.0,105.0,101.0,13.3,1505.2,321.7,-0.7,1.8,2471.142,13.29,0.031,257.3
2023-02-16T08:37:03,42.805,6.029,-0.013,-0.007,-0.013,105.0,104.0,103.0,13.4,1505.2,322.1,-0.8,1.8,2471.132,13.29,0.014,241.7
2023-02-16T08:40:03,42.805,6.029,-0.012,0.003,-0.007,105.0,104.0,103.0,13.3,1505.2,330.7,-0.8,1.8,2471.16,13.29,0.012,284.0
2023-02-16T08:43:03,42.805,6.029,-0.021,-0.013,-0.033,104.0,105.0,103.0,13.4,1505.2,324.8,-0.8,1.8,2471.155,13.29,0.024,238.2
2023-02-16T08:46:03,42.805,6.029,-0.016,-0.004,-0.003,105.0,104.0,103.0,13.4,1505.2,334.2,-0.7,1.8,2471.142,13.29,0.016,256.0
2023-02-16T08:49:03,42.805,6.029,-0.009,-0.003,-0.036,104.0,103.0,104.0,13.4,1505.2,318.8,-0.8,1.9,2471.134,13.29,0.009,251.6
2023-02-16T08:52:03,42.805,6.029,0.004,-0.003,-0.021,105.0,103.0,102.0,13.4,1505.2,319.8,-0.7,1.8,2471.143,13.29,0.005,126.9
2023-02-16T08:55:03,42.805,6.029,-0.002,-0.024,-0.046,105.0,103.0,103.0,13.4,1505.2,331.7,-0.7,1.8,2471.116,13.29,0.024,184.8
2023-02-16T08:58:03,42.805,6.029,-0.021,-0.002,-0.017,105.0,105.0,103.0,13.3,1505.2,332.9,-0.8,1.8,2471.16,13.29,0.021,264.6
2023-02-16T09:04:03,42.805,6.029,-0.027,-0.004,0.001,105.0,104.0,103.0,13.3,1505.2,331.6,-0.8,1.8,2471.175,13.29,0.027,261.6
2023-02-16T09:07:03,42.805,6.029,-0.015,-0.012,-0.013,105.0,105.0,103.0,13.4,1505.2,337.8,-0.7,1.8,2471.163,13.29,0.019,231.3
2023-02-16T09:10:03,42.805,6.029,0.002,0.0,0.0,105.0,104.0,103.0,13.4,1505.2,317.4,-0.8,1.8,2471.192,13.29,0.002,90.0
2023-02-16T09:13:03,42.805,6.029,-0.003,-0.014,0.003,104.0,105.0,104.0,13.3,1505.2,328.5,-0.8,1.8,2471.165,13.29,0.014,192.1
2023-02-16T09:16:03,42.805,6.029,-0.014,0.0,-0.037,104.0,104.0,103.0,13.4,1505.2,325.7,-0.8,1.8,2471.171,13.29,0.014,270.0
2023-02-16T09:19:03,42.805,6.029,0.004,-0.011,-0.032,105.0,103.0,103.0,13.4,1505.2,322.6,-0.8,1.8,2471.126,13.29,0.011,160.0
2023-02-16T09:22:03,42.805,6.029,-0.025,-0.005,0.005,105.0,105.0,103.0,13.4,1505.2,321.3,-0.7,1.8,2471.135,13.29,0.025,258.7
2023-02-16T09:25:03,42.805,6.029,-0.03,-0.029,-0.018,104.0,105.0,103.0,13.4,1505.2,321.3,-0.8,1.8,2471.171,13.29,0.041,226.0
2023-02-16T09:28:03,42.805,6.029,-0.019,0.003,-0.03,105.0,105.0,104.0,13.3,1505.2,329.4,-0.8,1.8,2471.19,13.29,0.019,279.0
2023-02-16T09:31:03,42.805,6.029,-0.024,0.003,-0.049,105.0,105.0,103.0,13.4,1505.2,333.8,-0.7,1.8,2471.169,13.29,0.024,277.1
2023-02-16T09:34:03,42.805,6.029,-0.018,-0.013,-0.066,106.0,105.0,101.0,13.4,1505.2,336.9,-0.8,1.8,2471.166,13.29,0.022,234.2
2023-02-16T09:37:03,42.805,6.029,-0.012,-0.001,-0.029,106.0,105.0,102.0,13.4,1505.2,325.5,-0.8,1.8,2471.184,13.29,0.012,265.2
2023-02-16T09:40:03,42.805,6.029,-0.003,-0.006,-0.027,106.0,105.0,103.0,13.4,1505.2,325.4,-0.7,1.8,2471.137,13.29,0.006,206.6
2023-02-16T09:43:03,42.805,6.029,-0.028,-0.003,-0.056,106.0,105.0,103.0,13.4,1505.2,336.3,-0.7,1.8,2471.151,13.29,0.028,263.9
2023-02-16T09:46:03,42.805,6.029,-0.014,-0.021,-0.047,105.0,104.0,103.0,13.3,1505.2,314.4,-0.8,1.8,2471.13,13.29,0.025,213.7
2023-02-16T09:49:03,42.805,6.029,-0.008,-0.007,-0.003,104.0,104.0,103.0,13.3,1505.2,319.8,-0.8,1.8,2471.145,13.29,0.01,228.8
2023-02-16T09:52:03,42.805,6.029,-0.012,0.006,-0.031,105.0,104.0,102.0,13.4,1505.2,329.0,-0.8,1.8,2471.126,13.29,0.013,296.6